TimeCDT,TemperatureF,Dew PointF,Humidity,Sea Level PressureIn,VisibilityMPH,Wind Direction,Wind SpeedMPH,Gust SpeedMPH,PrecipitationIn,Events,Conditions,WindDirDegrees,DateUTC
12:53 AM,54.0,48.0,80,30.04,10.0,ENE,9.2,-,N/A,,Clear,60,2013-05-23 05:53:00
1:53 AM,52.0,48.0,86,30.07,10.0,ENE,6.9,-,N/A,,Clear,60,2013-05-23 06:53:00
2:53 AM,51.1,48.0,89,30.08,10.0,NE,3.5,-,N/A,,Clear,40,2013-05-23 07:53:00
3:53 AM,48.0,46.0,93,30.10,10.0,North,5.8,-,N/A,,Clear,10,2013-05-23 08:53:00
4:53 AM,48.0,46.0,93,30.10,10.0,NNE,5.8,-,N/A,,Clear,20,2013-05-23 09:53:00
5:53 AM,48.9,46.0,90,30.12,10.0,North,4.6,-,N/A,,Clear,360,2013-05-23 10:53:00
6:53 AM,50.0,46.0,86,30.14,10.0,NNE,9.2,-,N/A,,Clear,30,2013-05-23 11:53:00
7:31 AM,48.2,46.4,93,30.18,10.0,NNE,10.4,-,N/A,,Scattered Clouds,20,2013-05-23 12:31:00
7:40 AM,50.0,46.4,87,30.19,10.0,North,10.4,-,N/A,,Mostly Cloudy,10,2013-05-23 12:40:00
7:53 AM,50.0,46.0,86,30.15,10.0,NNE,11.5,-,N/A,,Overcast,20,2013-05-23 12:53:00
8:14 AM,51.8,46.4,82,30.18,10.0,NNE,8.1,-,N/A,,Scattered Clouds,20,2013-05-23 13:14:00
8:53 AM,54.0,46.9,77,30.14,10.0,NE,15.0,-,N/A,,Clear,50,2013-05-23 13:53:00
9:53 AM,59.0,46.9,64,30.13,10.0,ENE,11.5,-,N/A,,Clear,60,2013-05-23 14:53:00
10:53 AM,63.0,48.0,58,30.13,10.0,East,13.8,17.3,N/A,,Mostly Cloudy,90,2013-05-23 15:53:00
11:53 AM,64.9,48.0,54,30.14,10.0,ENE,9.2,17.3,N/A,,Scattered Clouds,70,2013-05-23 16:53:00
12:53 PM,66.9,48.0,51,30.16,10.0,East,10.4,17.3,N/A,,Unknown,80,2013-05-23 17:53:00
1:53 PM,66.9,48.0,51,30.15,10.0,ESE,11.5,-,N/A,,Partly Cloudy,120,2013-05-23 18:53:00
2:53 PM,69.1,48.0,47,30.14,10.0,East,13.8,19.6,N/A,,Clear,100,2013-05-23 19:53:00
3:53 PM,72.0,48.9,44,30.13,10.0,SE,11.5,21.9,N/A,,Clear,130,2013-05-23 20:53:00
4:53 PM,73.9,50.0,43,30.12,10.0,East,13.8,20.7,N/A,,Partly Cloudy,90,2013-05-23 21:53:00
5:53 PM,72.0,48.9,44,30.10,10.0,ESE,12.7,20.7,N/A,,Clear,120,2013-05-23 22:53:00
6:53 PM,71.1,50.0,47,30.09,10.0,SE,18.4,-,N/A,,Clear,140,2013-05-23 23:53:00
7:53 PM,68.0,50.0,52,30.09,10.0,ESE,12.7,-,N/A,,Scattered Clouds,120,2013-05-24 00:53:00
8:53 PM,64.9,50.0,58,30.09,10.0,ESE,15.0,-,N/A,,Overcast,110,2013-05-24 01:53:00
9:53 PM,63.0,51.1,65,30.11,10.0,East,10.4,-,N/A,,Overcast,100,2013-05-24 02:53:00
10:53 PM,61.0,52.0,72,30.15,10.0,ESE,9.2,-,N/A,,Partly Cloudy,110,2013-05-24 03:53:00
11:53 PM,59.0,52.0,78,30.14,10.0,ESE,10.4,-,N/A,,Clear,110,2013-05-24 04:53:00